Time,TemperatureF,DewpointF,PressureIn,WindDirection,WindDirectionDegrees,WindSpeedMPH,WindSpeedGustMPH,Humidity,HourlyPrecipIn,Conditions,Clouds,dailyrainin,SoftwareType,DateUTC
2013-05-27 00:06:00,50.3,37.0,30.29,West,276,7.0,12.0,60,0.00,,,0.00,weatherlink.com 1.10,2013-05-27 04:06:00,
2013-05-27 00:21:00,50.1,37.0,30.29,WSW,245,1.0,13.0,61,0.00,,,0.00,weatherlink.com 1.10,2013-05-27 04:21:00,
2013-05-27 00:36:00,49.6,37.0,30.29,WSW,256,6.0,12.0,62,0.00,,,0.00,weatherlink.com 1.10,2013-05-27 04:36:00,
2013-05-27 00:51:00,49.4,37.0,30.29,WSW,255,3.0,13.0,63,0.00,,,0.00,weatherlink.com 1.10,2013-05-27 04:51:00,
2013-05-27 01:06:00,49.3,37.0,30.29,WSW,251,6.0,13.0,63,0.00,,,0.00,weatherlink.com 1.10,2013-05-27 05:06:00,
2013-05-27 01:21:00,49.1,37.0,30.29,SW,224,2.0,15.0,63,0.00,,,0.00,weatherlink.com 1.10,2013-05-27 05:21:00,
2013-05-27 01:36:00,48.6,37.0,30.30,SW,232,0.0,13.0,64,0.00,,,0.00,weatherlink.com 1.10,2013-05-27 05:36:00,
2013-05-27 01:51:00,48.5,37.0,30.30,WSW,248,6.0,11.0,64,0.00,,,0.00,weatherlink.com 1.10,2013-05-27 05:51:00,
2013-05-27 02:06:00,48.1,37.0,30.30,SW,232,5.0,11.0,65,0.00,,,0.00,weatherlink.com 1.10,2013-05-27 06:06:00,
2013-05-27 02:21:00,47.6,37.0,30.30,SW,234,7.0,10.0,66,0.00,,,0.00,weatherlink.com 1.10,2013-05-27 06:21:00,
2013-05-27 02:36:00,47.3,36.0,30.30,SW,221,4.0,11.0,66,0.00,,,0.00,weatherlink.com 1.10,2013-05-27 06:36:00,
2013-05-27 02:51:00,46.9,36.0,30.30,SW,235,0.0,9.0,67,0.00,,,0.00,weatherlink.com 1.10,2013-05-27 06:51:00,
2013-05-27 03:06:00,46.1,36.0,30.30,SW,217,0.0,7.0,69,0.00,,,0.00,weatherlink.com 1.10,2013-05-27 07:06:00,
2013-05-27 03:21:00,45.7,37.0,30.31,SSW,198,0.0,7.0,71,0.00,,,0.00,weatherlink.com 1.10,2013-05-27 07:21:00,
2013-05-27 03:36:00,45.4,37.0,30.31,SW,226,0.0,5.0,72,0.00,,,0.00,weatherlink.com 1.10,2013-05-27 07:36:00,
2013-05-27 03:52:00,45.1,37.0,30.31,SW,219,0.0,6.0,73,0.00,,,0.00,weatherlink.com 1.10,2013-05-27 07:52:00,
2013-05-27 04:07:00,44.9,37.0,30.31,SW,223,4.0,6.0,73,0.00,,,0.00,weatherlink.com 1.10,2013-05-27 08:07:00,
2013-05-27 04:22:00,45.0,37.0,30.32,SSW,211,3.0,7.0,73,0.00,,,0.00,weatherlink.com 1.10,2013-05-27 08:22:00,
2013-05-27 04:37:00,45.4,37.0,30.32,SW,228,0.0,8.0,72,0.00,,,0.00,weatherlink.com 1.10,2013-05-27 08:37:00,
2013-05-27 04:52:00,45.4,36.0,30.32,SW,236,0.0,8.0,71,0.00,,,0.00,weatherlink.com 1.10,2013-05-27 08:52:00,
2013-05-27 05:07:00,45.7,37.0,30.32,SW,225,2.0,12.0,71,0.00,,,0.00,weatherlink.com 1.10,2013-05-27 09:07:00,
2013-05-27 05:22:00,45.4,36.0,30.33,South,190,3.0,8.0,71,0.00,,,0.00,weatherlink.com 1.10,2013-05-27 09:22:00,
2013-05-27 05:37:00,45.3,37.0,30.33,SSW,204,0.0,7.0,72,0.00,,,0.00,weatherlink.com 1.10,2013-05-27 09:37:00,
2013-05-27 05:52:00,45.3,37.0,30.33,SSW,209,0.0,8.0,72,0.00,,,0.00,weatherlink.com 1.10,2013-05-27 09:52:00,
2013-05-27 06:07:00,45.3,37.0,30.33,SSW,213,0.0,7.0,72,0.00,,,0.00,weatherlink.com 1.10,2013-05-27 10:07:00,
2013-05-27 06:22:00,45.8,37.0,30.33,West,263,0.0,8.0,71,0.00,,,0.00,weatherlink.com 1.10,2013-05-27 10:22:00,
2013-05-27 06:37:00,46.1,37.0,30.33,WSW,241,3.0,7.0,71,0.00,,,0.00,weatherlink.com 1.10,2013-05-27 10:37:00,
2013-05-27 06:52:00,46.8,37.0,30.34,SW,226,0.0,9.0,69,0.00,,,0.00,weatherlink.com 1.10,2013-05-27 10:52:00,
2013-05-27 07:07:00,47.7,37.0,30.34,WSW,240,2.0,10.0,67,0.00,,,0.00,weatherlink.com 1.10,2013-05-27 11:07:00,
2013-05-27 07:22:00,48.2,37.0,30.35,WSW,246,5.0,12.0,66,0.00,,,0.00,weatherlink.com 1.10,2013-05-27 11:22:00,
2013-05-27 07:37:00,49.3,37.0,30.35,SW,235,2.0,14.0,64,0.00,,,0.00,weatherlink.com 1.10,2013-05-27 11:37:00,
2013-05-27 07:52:00,49.5,38.0,30.35,WSW,258,1.0,12.0,65,0.00,,,0.00,weatherlink.com 1.10,2013-05-27 11:52:00,
2013-05-27 08:07:00,49.7,38.0,30.35,West,259,9.0,12.0,65,0.00,,,0.00,weatherlink.com 1.10,2013-05-27 12:07:00,
2013-05-27 08:22:00,50.2,39.0,30.36,WSW,254,10.0,13.0,65,0.00,,,0.00,weatherlink.com 1.10,2013-05-27 12:22:00,
2013-05-27 08:37:00,50.6,39.0,30.35,WSW,250,0.0,11.0,65,0.00,,,0.00,weatherlink.com 1.10,2013-05-27 12:37:00,
2013-05-27 08:52:00,51.5,40.0,30.36,WSW,255,7.0,13.0,64,0.00,,,0.00,weatherlink.com 1.10,2013-05-27 12:52:00,
2013-05-27 09:07:00,52.3,40.0,30.36,WSW,252,7.0,14.0,63,0.00,,,0.00,weatherlink.com 1.10,2013-05-27 13:07:00,
2013-05-27 09:22:00,53.2,40.0,30.36,WNW,298,5.0,10.0,61,0.00,,,0.00,weatherlink.com 1.10,2013-05-27 13:22:00,
2013-05-27 09:37:00,54.3,40.0,30.36,WSW,249,2.0,10.0,59,0.00,,,0.00,weatherlink.com 1.10,2013-05-27 13:37:00,
2013-05-27 09:52:00,54.6,40.0,30.36,SW,232,6.0,10.0,58,0.00,,,0.00,weatherlink.com 1.10,2013-05-27 13:52:00,
2013-05-27 10:07:00,55.1,39.0,30.36,NW,311,9.0,11.0,55,0.00,,,0.00,weatherlink.com 1.10,2013-05-27 14:07:00,
2013-05-27 10:22:00,56.0,41.0,30.36,NW,306,4.0,11.0,58,0.00,,,0.00,weatherlink.com 1.10,2013-05-27 14:22:00,
2013-05-27 10:37:00,56.6,40.0,30.36,WNW,283,5.0,11.0,55,0.00,,,0.00,weatherlink.com 1.10,2013-05-27 14:37:00,
2013-05-27 10:52:00,57.5,40.0,30.35,West,274,8.0,10.0,52,0.00,,,0.00,weatherlink.com 1.10,2013-05-27 14:52:00,
2013-05-27 11:08:00,58.2,40.0,30.34,West,267,3.0,10.0,51,0.00,,,0.00,weatherlink.com 1.10,2013-05-27 15:08:00,
2013-05-27 11:23:00,59.5,38.0,30.34,NW,316,7.0,10.0,45,0.00,,,0.00,weatherlink.com 1.10,2013-05-27 15:23:00,
2013-05-27 11:38:00,60.1,39.0,30.34,NW,312,4.0,10.0,46,0.00,,,0.00,weatherlink.com 1.10,2013-05-27 15:38:00,
2013-05-27 11:53:00,60.1,38.0,30.34,NW,304,0.0,11.0,44,0.00,,,0.00,weatherlink.com 1.10,2013-05-27 15:53:00,
2013-05-27 12:08:00,61.2,37.0,30.34,North,5,4.0,13.0,41,0.00,,,0.00,weatherlink.com 1.10,2013-05-27 16:08:00,
2013-05-27 12:23:00,61.7,37.0,30.34,NW,317,6.0,13.0,40,0.00,,,0.00,weatherlink.com 1.10,2013-05-27 16:23:00,
2013-05-27 12:38:00,62.3,36.0,30.33,WNW,285,4.0,15.0,38,0.00,,,0.00,weatherlink.com 1.10,2013-05-27 16:38:00,
2013-05-27 12:53:00,62.2,37.0,30.33,WNW,294,5.0,12.0,39,0.00,,,0.00,weatherlink.com 1.10,2013-05-27 16:53:00,
2013-05-27 13:08:00,62.6,38.0,30.32,NW,313,1.0,11.0,40,0.00,,,0.00,weatherlink.com 1.10,2013-05-27 17:08:00,
2013-05-27 13:23:00,62.7,37.0,30.32,WNW,295,3.0,13.0,38,0.00,,,0.00,weatherlink.com 1.10,2013-05-27 17:23:00,
2013-05-27 13:38:00,62.9,34.0,30.31,WSW,257,2.0,13.0,34,0.00,,,0.00,weatherlink.com 1.10,2013-05-27 17:38:00,
2013-05-27 13:53:00,63.6,35.0,30.31,WNW,302,5.0,15.0,34,0.00,,,0.00,weatherlink.com 1.10,2013-05-27 17:53:00,
2013-05-27 14:08:00,64.0,36.0,30.31,WNW,298,7.0,13.0,36,0.00,,,0.00,weatherlink.com 1.10,2013-05-27 18:08:00,
2013-05-27 14:23:00,64.2,37.0,30.30,WNW,300,9.0,14.0,37,0.00,,,0.00,weatherlink.com 1.10,2013-05-27 18:23:00,
2013-05-27 14:38:00,64.8,35.0,30.30,West,271,6.0,13.0,33,0.00,,,0.00,weatherlink.com 1.10,2013-05-27 18:38:00,
2013-05-27 14:53:00,64.8,35.0,30.29,WNW,296,5.0,8.0,33,0.00,,,0.00,weatherlink.com 1.10,2013-05-27 18:53:00,
2013-05-27 15:08:00,64.9,34.0,30.29,WSW,243,0.0,15.0,32,0.00,,,0.00,weatherlink.com 1.10,2013-05-27 19:08:00,
2013-05-27 15:23:00,65.4,37.0,30.29,NW,325,3.0,8.0,35,0.00,,,0.00,weatherlink.com 1.10,2013-05-27 19:23:00,
2013-05-27 15:38:00,66.0,34.0,30.28,NNW,347,0.0,9.0,30,0.00,,,0.00,weatherlink.com 1.10,2013-05-27 19:38:00,
2013-05-27 15:53:00,65.5,37.0,30.28,NW,317,5.0,6.0,35,0.00,,,0.00,weatherlink.com 1.10,2013-05-27 19:53:00,
2013-05-27 16:08:00,66.3,37.0,30.28,WNW,303,0.0,12.0,34,0.00,,,0.00,weatherlink.com 1.10,2013-05-27 20:08:00,
2013-05-27 16:23:00,66.1,37.0,30.27,WNW,303,2.0,12.0,34,0.00,,,0.00,weatherlink.com 1.10,2013-05-27 20:23:00,
2013-05-27 16:38:00,65.8,37.0,30.27,WNW,283,0.0,9.0,34,0.00,,,0.00,weatherlink.com 1.10,2013-05-27 20:38:00,
2013-05-27 16:53:00,67.9,38.0,30.27,WNW,288,0.0,8.0,34,0.00,,,0.00,weatherlink.com 1.10,2013-05-27 20:53:00,
2013-05-27 17:08:00,67.2,40.0,30.27,NW,304,5.0,6.0,37,0.00,,,0.00,weatherlink.com 1.10,2013-05-27 21:08:00,
2013-05-27 17:23:00,66.9,38.0,30.27,WNW,292,5.0,10.0,34,0.00,,,0.00,weatherlink.com 1.10,2013-05-27 21:23:00,
2013-05-27 17:38:00,66.7,37.0,30.27,NW,324,2.0,9.0,33,0.00,,,0.00,weatherlink.com 1.10,2013-05-27 21:38:00,
2013-05-27 17:53:00,66.2,38.0,30.27,NW,319,0.0,6.0,35,0.00,,,0.00,weatherlink.com 1.10,2013-05-27 21:53:00,
2013-05-27 18:08:00,66.2,38.0,30.27,NW,313,0.0,8.0,36,0.00,,,0.00,weatherlink.com 1.10,2013-05-27 22:08:00,
2013-05-27 18:23:00,65.6,37.0,30.26,NW,311,4.0,6.0,35,0.00,,,0.00,weatherlink.com 1.10,2013-05-27 22:23:00,
2013-05-27 18:38:00,65.3,36.0,30.26,NE,44,0.0,4.0,34,0.00,,,0.00,weatherlink.com 1.10,2013-05-27 22:38:00,
2013-05-27 18:53:00,65.3,37.0,30.26,NNW,338,0.0,4.0,35,0.00,,,0.00,weatherlink.com 1.10,2013-05-27 22:53:00,
2013-05-27 19:08:00,65.0,36.0,30.26,NNW,338,0.0,3.0,34,0.00,,,0.00,weatherlink.com 1.10,2013-05-27 23:08:00,
2013-05-27 19:23:00,65.0,37.0,30.26,NW,317,0.0,4.0,36,0.00,,,0.00,weatherlink.com 1.10,2013-05-27 23:23:00,
2013-05-27 19:38:00,64.0,38.0,30.26,NW,321,0.0,3.0,38,0.00,,,0.00,weatherlink.com 1.10,2013-05-27 23:38:00,
2013-05-27 19:53:00,62.8,35.0,30.26,NW,319,0.0,2.0,36,0.00,,,0.00,weatherlink.com 1.10,2013-05-27 23:53:00,
2013-05-27 20:08:00,61.9,35.0,30.26,NW,319,0.0,0.0,37,0.00,,,0.00,weatherlink.com 1.10,2013-05-28 00:08:00,
2013-05-27 20:23:00,61.2,35.0,30.25,NW,319,0.0,0.0,37,0.00,,,0.00,weatherlink.com 1.10,2013-05-28 00:23:00,
2013-05-27 20:38:00,60.5,34.0,30.25,NW,319,0.0,0.0,37,0.00,,,0.00,weatherlink.com 1.10,2013-05-28 00:38:00,
2013-05-27 20:53:00,60.1,33.0,30.25,NW,319,0.0,0.0,36,0.00,,,0.00,weatherlink.com 1.10,2013-05-28 00:53:00,
2013-05-27 21:08:00,59.7,33.0,30.25,NW,319,0.0,0.0,36,0.00,,,0.00,weatherlink.com 1.10,2013-05-28 01:08:00,
2013-05-27 21:23:00,59.4,33.0,30.25,NW,319,0.0,0.0,37,0.00,,,0.00,weatherlink.com 1.10,2013-05-28 01:23:00,
2013-05-27 21:38:00,59.2,33.0,30.26,NW,319,0.0,0.0,38,0.00,,,0.00,weatherlink.com 1.10,2013-05-28 01:38:00,
2013-05-27 21:53:00,58.7,33.0,30.26,NW,319,0.0,0.0,38,0.00,,,0.00,weatherlink.com 1.10,2013-05-28 01:53:00,
2013-05-27 22:08:00,58.6,33.0,30.26,East,92,0.0,2.0,38,0.00,,,0.00,weatherlink.com 1.10,2013-05-28 02:08:00,
2013-05-27 22:23:00,58.9,33.0,30.26,East,97,0.0,1.0,38,0.00,,,0.00,weatherlink.com 1.10,2013-05-28 02:23:00,
2013-05-27 22:39:00,56.9,35.0,30.27,SE,142,4.0,6.0,44,0.00,,,0.00,weatherlink.com 1.10,2013-05-28 02:39:00,
2013-05-27 22:54:00,55.7,36.0,30.27,SE,146,0.0,4.0,48,0.00,,,0.00,weatherlink.com 1.10,2013-05-28 02:54:00,
2013-05-27 23:09:00,55.8,37.0,30.27,SE,146,0.0,4.0,49,0.00,,,0.00,weatherlink.com 1.10,2013-05-28 03:09:00,
2013-05-27 23:24:00,54.4,36.0,30.27,SSE,149,0.0,5.0,51,0.00,,,0.00,weatherlink.com 1.10,2013-05-28 03:24:00,
2013-05-27 23:39:00,54.0,37.0,30.27,SSE,149,0.0,1.0,52,0.00,,,0.00,weatherlink.com 1.10,2013-05-28 03:39:00,
2013-05-27 23:54:00,54.2,37.0,30.28,SSE,149,0.0,0.0,52,0.00,,,0.00,weatherlink.com 1.10,2013-05-28 03:54:00,